TimeCDT,TemperatureF,Dew PointF,Humidity,Sea Level PressureIn,VisibilityMPH,Wind Direction,Wind SpeedMPH,Gust SpeedMPH,PrecipitationIn,Events,Conditions,WindDirDegrees,DateUTC
12:52 AM,75.9,66.9,74,29.89,10.0,ESE,6.9,-,N/A,,Clear,110,2013-07-29 05:52:00
1:52 AM,78.1,66.9,68,29.88,10.0,SE,9.2,-,N/A,,Clear,130,2013-07-29 06:52:00
2:52 AM,77.0,68.0,74,29.87,10.0,ESE,9.2,-,N/A,,Clear,120,2013-07-29 07:52:00
3:52 AM,75.0,69.1,82,29.87,10.0,East,5.8,-,N/A,,Clear,100,2013-07-29 08:52:00
4:52 AM,73.9,70.0,87,29.86,10.0,SE,6.9,-,N/A,,Mostly Cloudy,130,2013-07-29 09:52:00
5:52 AM,75.0,71.1,87,29.86,10.0,SE,8.1,-,N/A,,Mostly Cloudy,130,2013-07-29 10:52:00
6:50 AM,75.2,71.6,89,29.92,9.0,SE,6.9,-,N/A,Thunderstorm,Mostly Cloudy,140,2013-07-29 11:50:00
6:52 AM,75.9,72.0,87,29.88,9.0,SE,6.9,-,N/A,Thunderstorm,Mostly Cloudy,140,2013-07-29 11:52:00
7:34 AM,77.0,73.4,89,29.94,1.5,South,12.7,-,0.04,Rain-Thunderstorm,Heavy Thunderstorms and Rain,180,2013-07-29 12:34:00
7:40 AM,75.2,73.4,94,29.95,0.8,South,23.0,-,0.19,Rain-Thunderstorm,Heavy Thunderstorms and Rain,190,2013-07-29 12:40:00
7:52 AM,78.1,70.0,76,29.91,0.5,Variable,3.5,-,0.66,Rain-Thunderstorm,Thunderstorms and Rain,0,2013-07-29 12:52:00
7:57 AM,77.0,69.8,78,29.95,1.8,East,5.8,-,0.02,Rain-Thunderstorm,Light Thunderstorms and Rain,100,2013-07-29 12:57:00
8:02 AM,75.2,71.6,89,29.95,3.0,East,9.2,-,0.02,Rain-Thunderstorm,Light Thunderstorms and Rain,100,2013-07-29 13:02:00
8:47 AM,75.2,73.4,94,29.95,8.0,ESE,10.4,-,0.02,,Overcast,120,2013-07-29 13:47:00
8:52 AM,75.9,73.0,91,29.91,8.0,ESE,10.4,-,0.02,,Overcast,120,2013-07-29 13:52:00
9:52 AM,77.0,73.0,88,29.93,8.0,SE,12.7,-,N/A,,Mostly Cloudy,130,2013-07-29 14:52:00
10:52 AM,82.0,73.9,76,29.93,9.0,SSE,16.1,21.9,N/A,,Mostly Cloudy,160,2013-07-29 15:52:00
11:52 AM,82.9,73.9,74,29.92,9.0,SSE,17.3,-,N/A,,Mostly Cloudy,150,2013-07-29 16:52:00
12:52 PM,86.0,73.0,65,29.91,9.0,South,15.0,-,N/A,,Mostly Cloudy,170,2013-07-29 17:52:00
1:52 PM,89.1,75.0,63,29.89,9.0,South,16.1,21.9,N/A,,Mostly Cloudy,170,2013-07-29 18:52:00
2:52 PM,91.0,68.0,47,29.88,10.0,SSE,17.3,25.3,N/A,,Mostly Cloudy,160,2013-07-29 19:52:00
3:52 PM,90.0,68.0,48,29.88,10.0,SSE,16.1,-,N/A,,Partly Cloudy,160,2013-07-29 20:52:00
4:52 PM,93.9,70.0,46,29.85,10.0,SSE,20.7,26.5,N/A,,Mostly Cloudy,160,2013-07-29 21:52:00
5:52 PM,93.0,68.0,44,29.82,10.0,South,20.7,26.5,N/A,,Scattered Clouds,170,2013-07-29 22:52:00
6:52 PM,91.0,66.9,45,29.81,10.0,SSE,15.0,-,N/A,,Scattered Clouds,160,2013-07-29 23:52:00
7:52 PM,91.0,68.0,47,29.83,10.0,SE,10.4,-,N/A,,Scattered Clouds,140,2013-07-30 00:52:00
8:52 PM,87.1,71.1,59,29.85,10.0,SE,10.4,-,N/A,,Mostly Cloudy,130,2013-07-30 01:52:00
9:52 PM,86.0,69.1,57,29.86,10.0,SSE,9.2,-,N/A,,Scattered Clouds,150,2013-07-30 02:52:00
10:52 PM,87.1,68.0,53,29.87,10.0,SSE,15.0,-,N/A,,Scattered Clouds,160,2013-07-30 03:52:00
11:52 PM,86.0,63.0,46,29.87,10.0,South,16.1,-,N/A,,Clear,170,2013-07-30 04:52:00